STARLINK-33679, 63460

Orbit data source: Space-Track

STARLINK-33679, 63460 is a payload satellite owned by SpaceX/Seattle (US) in LEO that was launched on Sun, 06 Apr 2025 UTC via an FALCON 9 launch vehicle from the Air Force Eastern Test Range (AFETR). Payload-class satellites include a variety of spacecraft equipped with specific instruments for various scientific and technological missions. These include communications satellites like Starlink; space stations such as the ISS; scientific satellites like the Hubble; Earth observation satellites from companies like Planet Labs, Umbra, and HawkEye 360; GPS; miniature CubeSats for education and research; and military/defense satellites.

Loading next visibility...
Identifier
63460, 2025-070A
Orbit
LEO
Country
Flag of USUS
Related business
Manufacturer
SpaceX/Seattle
Mission
Operational Commercial Communications
Bus & Motor
STARLINK V2MO, Unknown motor
Mass
575 kg wet, ~530 kg dry
Launch date (UTC)
2025-04-06 (1 year ago)
Launch vehicle
FALCON 9
Launch site
Air Force Eastern Test Range (AFETR)
Object type
Payload
Rocket body
Debris
Shape & HBR
Box + 2 Pan, 17.7 m
Radar Cross Section
36.964 m², Large (>1 m²)

Expand to show TLE details & history
Last TLE update: 18 hours ago

TLE from 18 hours ago
0 STARLINK-33679
1 63460U 25070A   26169.38777588  .00010927  00000-0  40598-3 0  9998
2 63460  43.0019  51.4279 0001602 278.0336  82.0333 15.27583038 68379
Epoch: 2026-06-18T09:18Z
TLE epoch observation values (Epoch: 2026-06-18T09:18:23.836Z)
Latitude
-0.00006°
Longitude
5.1967°
Altitude
482.663 km
Speed
7.626 km/s
True Right ascension
03h 25m 42s
True Declination
0° 00' 00"
Sunlit
Object was in daylight at epoch
Visualization orbit readout
Latitude
Unknown
Longitude
Unknown
Altitude
Unknown
Speed
Unknown
Apparent Right ascension
Unknown
Apparent Declination
Unknown
Sunlit
N/A
Visualization observer readout
Local Sidereal Time
14:04:49
Azimuth
Unknown
Elevation
Unknown
Doppler factor
Unknown
Orbital elements
Apogee altitude
486.084 km
Perigee altitude
483.885 km
Semi-major axis
6,863.122 km
Eccentricity
0.00016
Inclination
43.0019°
RAAN
51.4279°
Arg. of periapsis
278.0336°
True anomaly
82.05148°
Mean anomaly
82.0333°
Eccentric anomaly
82.04239°
Mean motion
3.81734 °/min
Orbital period
94.31 mins
BSTAR
0.00040598
Loading maneuver chart data...
Computing Atmospheric mass density...
Loading historical data...
Loading historical data...
Loading historical data...
Loading historical data...
Loading historical data...
Loading historical data...
Loading historical data...

Documentation

Showing up to 5 results
|